Location: Coleto Creek Park and Reservoir
(28.7196°N, 97.1740°W)
Time: 09:18:13
(UTC-05:00)

Hubble Space Telescope - Visible Passes

Search period start: 29 August 2016 00:00
Search period end: 08 September 2016 00:00
Orbit: 539 x 543 km, 28.5° (Epoch: 28 August)

Date Brightness Start Highest point End Pass type
(mag) Time Alt. Az. Time Alt. Az. Time Alt. Az.
29 Aug 2.5 20:55:49 10° WSW 20:59:08 23° SSW 21:01:26 15° SSE visible
30 Aug 2.9 20:46:25 10° WSW 20:49:18 18° SSW 20:52:12 10° SSE visible
31 Aug 3.2 20:37:15 10° WSW 20:39:28 14° SSW 20:41:42 10° S visible
01 Sep 3.5 20:28:44 10° SW 20:29:37 11° SSW 20:30:30 10° SSW visible
